Location: Ermatingen
(47.6706°N, 9.0857°E)
Time: 13:15:35
(UTC+00:00)

Cosmos 1428 Rocket - Visible Passes

Search period start: 16 January 2021 00:00
Search period end: 26 January 2021 00:00
Orbit: 949 x 987 km, 82.9° (Epoch: 15 January)

Date Brightness Start Highest point End Pass type
(mag) Time Alt. Az. Time Alt. Az. Time Alt. Az.
16 Jan 6.2 05:10:25 10° N 05:16:05 33° ENE 05:21:39 10° SE visible
16 Jan 6.2 18:42:11 10° SSE 18:43:43 18° SSE 18:43:43 18° SSE visible
17 Jan 5.3 05:33:19 10° N 05:39:31 53° ENE 05:45:36 10° SSE visible
17 Jan 6.3 17:23:31 10° ESE 17:23:59 11° ESE 17:23:59 11° ESE visible
17 Jan 5.4 19:05:04 10° S 19:08:38 37° S 19:08:38 37° S visible
18 Jan 7.1 04:12:37 10° NNE 04:16:31 17° ENE 04:20:23 10° E visible
18 Jan 4.6 05:56:26 10° N 06:02:47 85° E 06:09:03 10° S visible
18 Jan 5.4 17:44:45 10° SE 17:49:15 26° E 17:49:15 26° E visible
18 Jan 5.0 19:28:26 10° SSW 19:42:56 - N 19:33:56 55° WSW visible
18 Jan7.421:27:22N21:27:22N21:18:37Wvisible
19 Jan 6.5 04:34:59 10° N 04:40:13 26° ENE 04:45:21 10° ESE visible
19 Jan 4.6 06:19:42 10° NNW 06:25:53 60° W 06:32:00 10° S visible
19 Jan 4.8 18:06:50 10° SSE 18:12:41 43° E 18:15:25 28° NE visible
19 Jan 5.8 19:52:18 10° SW 19:58:00 36° WNW 20:00:15 28° NNW visible
20 Jan 5.7 04:57:46 10° N 05:03:43 42° ENE 05:09:35 10° SE visible
20 Jan 6.1 16:49:29 10° E 16:51:41 12° ENE 16:53:53 10° NE visible
20 Jan 4.4 18:29:28 10° S 18:35:42 71° E 18:42:00 10° NNE visible
20 Jan 6.5 20:16:44 10° WSW 20:21:34 23° WNW 20:26:27 10° NNW visible
21 Jan 7.2 03:37:43 10° NNE 03:40:31 13° ENE 03:43:18 10° E visible
21 Jan 4.9 05:20:47 10° N 05:27:04 68° ENE 05:33:16 10° SSE visible
21 Jan 5.6 17:09:53 10° SE 17:14:20 21° E 17:18:48 10° NE visible
21 Jan 4.6 18:52:35 10° SSW 18:58:51 73° W 19:05:13 10° N visible
21 Jan 7.1 20:42:05 10° W 20:45:19 14° WNW 20:48:34 10° NNW visible
22 Jan 6.8 03:59:39 10° NNE 04:04:17 21° ENE 04:08:53 10° ESE visible
22 Jan 4.5 05:43:58 10° NNW 05:50:16 76° W 05:56:28 10° S visible
22 Jan 5.1 17:31:37 10° SSE 17:37:08 34° E 17:42:42 10° NNE visible
22 Jan 5.5 19:16:13 10° SW 19:22:12 45° WNW 19:28:15 10° N visible
23 Jan 6.1 04:22:16 10° N 04:27:54 33° ENE 04:33:27 10° SE visible
23 Jan 4.8 06:07:20 10° NNW 06:13:18 46° W 06:19:12 10° SSW visible
23 Jan 4.5 17:53:59 10° SSE 18:00:05 55° E 18:06:14 10° NNE visible
23 Jan 6.3 19:40:20 10° SW 19:45:41 28° WNW 19:51:04 10° N visible
24 Jan 5.3 04:45:10 10° N 04:51:20 53° ENE 04:57:23 10° SSE visible
24 Jan 4.4 18:16:53 10° S 18:23:11 89° E 18:29:33 10° N visible
24 Jan 6.9 20:05:10 10° WSW 20:09:20 18° WNW 20:13:32 10° NNW visible
25 Jan 7.0 03:24:28 10° NNE 03:28:20 17° ENE 03:32:10 10° E visible
25 Jan 4.5 05:08:16 10° N 05:14:36 85° E 05:20:49 10° S visible
25 Jan 5.4 16:56:33 10° SE 17:01:37 27° E 17:06:44 10° NNE visible
25 Jan 5.1 18:40:15 10° SSW 18:46:25 57° WNW 18:52:40 10° N visible
25 Jan 7.4 20:31:30 10° WNW 20:33:11 11° NW 20:34:51 10° NW visible
